FW1140 Weather Reports


Display with metric or nautical units.
time (UTC)temp
F
wind
direction
speed
MPH
gust
MPH
rain 1hr
in
rain 24hr
in
rain mn
in
humidity
%
barometer
mb
20260903224528 91 226 5.0 9.0 0.00 0.00 0.00 56 1000.7
20260903223057 92 225 5.0 11.0 0.00 0.00 0.00 55 1000.7
20260903221512 92 205 6.0 12.0 0.00 0.00 0.00 53 1000.5
20260903220015 93 193 5.0 10.0 0.00 0.00 0.00 53 1000.4
20260903214533 93 196 5.0 10.0 0.00 0.00 0.00 52 1000.4
20260903213033 94 165 4.0 10.0 0.00 0.00 0.00 51 1000.4
20260903211512 93 174 5.0 12.0 0.00 0.00 0.00 53 1000.3
20260903210021 93 170 6.0 13.0 0.00 0.00 0.00 52 1000.3
20260903204546 0 0.0 0.0 0.00 0.00 0.00 1000.3
20260903203011 93 165 7.0 12.0 0.00 0.00 0.00 54 1000.2
20260903201539 93 127 6.0 13.0 0.00 0.00 0.00 56 1000.5
20260903200035 92 146 7.0 13.0 0.00 0.00 0.00 54 1000.7
20260903194554 92 154 6.0 11.0 0.00 0.00 0.00 55 1000.8
20260903193043 92 153 6.0 9.0 0.00 0.00 0.00 55 1000.7
20260903191512 90 127 5.0 13.0 0.00 0.00 0.00 55 1000.6
20260903190017 90 140 6.0 11.0 0.00 0.00 0.00 57 1000.7
20260903184612 89 129 6.0 12.0 0.00 0.00 0.00 58 1000.9
20260903183043 88 118 5.0 8.0 0.00 0.00 0.00 59 1001.1
20260903181546 89 143 4.0 8.0 0.00 0.00 0.00 59 1001.2
20260903180006 88 122 5.0 8.0 0.00 0.00 0.00 61 1001.4
20260903174514 88 71 1.0 5.0 0.00 0.00 0.00 60 1001.5
20260903173057 85 138 3.0 6.0 0.00 0.00 0.00 65 1001.8
20260903171556 87 203 3.0 8.0 0.00 0.00 0.00 61 1002.3
20260903170013 87 146 2.0 5.0 0.00 0.00 0.00 62 1002.6
20260903164608 83 128 1.0 3.0 0.00 0.00 0.00 65 1002.6
20260903163103 83 123 4.0 6.0 0.00 0.00 0.00 67 1002.5
20260903161537 83 151 3.0 8.0 0.00 0.00 0.00 68 1002.4
20260903160039 83 155 2.0 5.0 0.00 0.00 0.00 69 1002.3
20260903154552 81 126 2.0 5.0 0.00 0.00 0.00 76 1002.3
20260903153007 80 155 1.0 5.0 0.00 0.00 0.00 78 1002.3
20260903151532 77 128 1.0 4.0 0.00 0.00 0.00 83 1002.4
20260903150011 75 155 2.0 5.0 0.00 0.00 0.00 93 1002.9
20260903144540 71 212 0.0 3.0 0.00 0.00 0.00 95 1003.2
20260903143045 70 108 1.0 5.0 0.00 0.00 0.00 95 1003.0
20260903141606 70 139 4.0 8.0 0.00 0.00 0.00 95 1003.0
20260903140047 69 134 4.0 8.0 0.00 0.00 0.00 95 1002.8
20260903134548 69 132 4.0 9.0 0.00 0.00 0.00 95 1002.8
20260903133022 68 110 2.0 4.0 0.00 0.00 0.00 95 1002.7
20260903131527 68 82 1.0 4.0 0.00 0.00 0.00 95 1002.8
20260903124509 67 356 0.0 1.0 0.00 0.00 0.00 95 1003.4
20260903123030 67 356 0.0 1.0 0.00 0.00 0.00 95 1003.3
20260903121549 67 356 0.0 1.0 0.00 0.00 0.00 95 1003.5
20260903120112 67 356 0.0 1.0 0.00 0.00 0.00 95 1003.4
20260903114556 67 356 0.0 2.0 0.00 0.00 0.00 95 1003.3
20260903113101 67 356 1.0 3.0 0.00 0.00 0.00 95 1003.3
20260903111515 67 356 0.0 2.0 0.00 0.00 0.00 95 1003.3
20260903110048 67 356 1.0 3.0 0.00 0.00 0.00 95 1003.3
20260903104552 67 356 0.0 1.0 0.00 0.00 0.00 94 1003.5
20260903103049 67 356 0.0 0.0 0.00 0.00 0.00 94 1003.6
20260903101602 67 356 0.0 0.0 0.00 0.00 0.00 94 1003.7
20260903100003 66 356 0.0 1.0 0.00 0.00 0.00 94 1003.5
20260903094544 66 356 0.0 0.0 0.00 0.00 0.00 94 1003.3
20260903093033 66 356 0.0 2.0 0.00 0.00 0.00 94 1003.7
20260903091551 66 356 0.0 2.0 0.00 0.00 0.00 94 1004.0
20260903090050 66 356 0.0 3.0 0.00 0.00 0.00 94 1004.0
20260903084540 66 356 0.0 2.0 0.00 0.00 0.00 94 1004.1
20260903083032 66 356 0.0 2.0 0.00 0.00 0.00 94 1004.3
20260903081603 65 356 0.0 2.0 0.00 0.00 0.00 94 1004.0
20260903080026 66 356 0.0 1.0 0.00 0.00 0.00 94 1004.2
20260903074510 66 356 0.0 2.0 0.00 0.00 0.00 93 1004.3
20260903073043 66 260 1.0 3.0 0.00 0.00 0.00 94 1004.5
20260903071540 66 332 0.0 3.0 0.00 0.00 0.00 93 1004.6
20260903070036 65 337 0.0 2.0 0.00 0.00 0.00 93 1004.7
20260903064516 65 324 0.0 0.0 0.00 0.00 0.00 93 1004.7
20260903063028 65 324 0.0 0.0 0.00 0.00 0.00 92 1004.8
20260903061509 66 323 1.0 2.0 0.00 0.00 0.00 92 1004.9
20260903060022 67 142 0.0 2.0 0.00 0.00 0.00 91 1005.0
20260903054509 68 142 0.0 0.0 0.00 0.00 0.00 91 1004.9
20260903053045 68 142 1.0 3.0 0.00 0.00 0.00 92 1005.0
20260903051539 68 153 1.0 3.0 0.00 0.00 0.00 92 1005.0
20260903050027 68 82 0.0 2.0 0.00 0.00 0.00 92 1005.3
20260903044559 68 82 0.0 0.0 0.00 0.00 0.00 92 1005.4
20260903043209 67 82 0.0 0.0 0.00 0.00 0.00 91 1005.2
20260903041521 67 82 0.0 0.0 0.00 0.00 0.00 92 1005.4
20260903040054 68 82 0.0 0.0 0.00 0.00 0.00 90 1005.7
20260903034604 69 82 0.0 0.0 0.00 0.00 0.00 91 1005.7
20260903033039 69 82 0.0 0.0 0.00 0.00 0.00 91 1005.7
20260903031559 67 82 0.0 0.0 0.00 0.00 0.00 91 1005.9
20260903030054 68 82 0.0 0.0 0.00 0.00 0.00 89 1005.9
20260903024605 68 82 0.0 0.0 0.00 0.05 0.00 89 1005.9
20260903023104 69 82 0.0 0.0 0.00 0.05 0.00 89 1005.8
20260903021612 70 82 0.0 0.0 0.00 0.05 0.00 87 1005.7
20260903020021 71 82 0.0 0.0 0.00 0.05 0.00 86 1005.7
20260903014552 72 82 0.0 0.0 0.00 0.06 0.00 85 1005.5
20260903013032 72 82 0.0 0.0 0.00 0.06 0.00 84 1005.3
20260903011544 74 82 0.0 0.0 0.00 0.06 0.00 81 1005.2
20260903010042 75 82 0.0 0.0 0.00 0.06 0.00 80 1005.2
20260903004604 76 82 0.0 1.0 0.00 0.07 0.00 77 1005.2
20260903003106 78 82 0.0 2.0 0.00 0.07 0.00 75 1005.2
20260903001508 79 77 2.0 5.0 0.00 0.07 0.00 71 1005.1
20260903000029 80 51 1.0 6.0 0.00 0.07 0.00 70 1005.1
20260902234532 81 82 3.0 8.0 0.00 0.07 0.00 67 1005.1
20260902233012 82 45 4.0 7.0 0.00 0.07 0.00 65 1005.2
20260902231532 83 68 3.0 8.0 0.00 0.07 0.00 64 1005.3
20260902230104 83 90 5.0 9.0 0.00 0.07 0.00 62 1005.3